Location: Roland
(31.1349°N, 85.4372°W)
Time: 00:35:10
(UTC+00:00)

Explorer 11/Cluster Stage 4 - Visible Passes

Search period start: 19 April 2021 00:00
Search period end: 29 April 2021 00:00
Orbit: 467 x 1257 km, 28.8° (Epoch: 18 April)

Date Brightness Start Highest point End Pass type
(mag) Time Alt. Az. Time Alt. Az. Time Alt. Az.
22 Apr 8.1 09:35:27 10° SSE 09:36:04 10° SSE 09:36:46 10° SE visible
23 Apr 7.9 09:25:10 13° SSE 09:25:10 13° SSE 09:26:53 10° SE visible
24 Apr 7.8 09:14:50 15° SE 09:14:50 15° SE 09:16:31 10° ESE visible
25 Apr 7.8 09:04:28 17° SE 09:04:28 17° SE 09:05:59 10° ESE visible
26 Apr 7.8 08:54:03 17° SE 08:54:03 17° SE 08:55:23 10° ESE visible
26 Apr 5.9 10:36:40 10° WSW 10:40:16 53° S 10:43:49 10° E visible
27 Apr 8.0 08:43:37 17° ESE 08:43:37 17° ESE 08:44:44 10° ESE visible
27 Apr 5.8 10:25:44 10° WSW 10:29:25 56° S 10:32:58 10° E visible
28 Apr 8.2 08:33:10 16° ESE 08:33:10 16° ESE 08:34:03 10° E visible
28 Apr 5.7 10:15:16 13° WSW 10:18:34 59° S 10:22:07 10° E visible
